Hourly Weather Almalyk

Today, 9 May, Sunday

Time Temperature Precipitation Wind Pressure Humidity
00:00 +17°C° 0.3 mm 3 mps 687 mmHg 76%
01:00 +17°C° 0.3 mm 3 mps 687 mmHg 76%
02:00 +16°C° 0.3 mm 3 mps 687 mmHg 75%
03:00 +16°C° 0 mm 3 mps 686 mmHg 74%
04:00 +16°C° 0 mm 3 mps 686 mmHg 72%
05:00 +16°C° 0 mm 3 mps 686 mmHg 71%
06:00 +18°C° 0 mm 2 mps 686 mmHg 64%
07:00 +21°C° 0 mm 2 mps 687 mmHg 57%
08:00 +24°C° 0 mm 1 mps 687 mmHg 50%
09:00 +25°C° 0 mm 1 mps 687 mmHg 46%
10:00 +27°C° 0 mm 2 mps 687 mmHg 43%
11:00 +28°C° 0 mm 2 mps 687 mmHg 38%
12:00 +29°C° 0 mm 3 mps 687 mmHg 37%
13:00 +29°C° 0 mm 3 mps 687 mmHg 37%
14:00 +29°C° 0 mm 4 mps 687 mmHg 36%
15:00 +29°C° 0.1 mm 3 mps 687 mmHg 39%
16:00 +28°C° 0.1 mm 3 mps 687 mmHg 43%
17:00 +27°C° 0.1 mm 2 mps 687 mmHg 46%
18:00 +25°C° 0.2 mm 2 mps 687 mmHg 55%
19:00 +22°C° 0.2 mm 3 mps 687 mmHg 64%
20:00 +19°C° 0.2 mm 3 mps 687 mmHg 72%
21:00 +19°C° 0.2 mm 2 mps 687 mmHg 74%
22:00 +18°C° 0.2 mm 2 mps 687 mmHg 76%
23:00 +17°C° 0.2 mm 2 mps 687 mmHg 78%

Tomorrow, 10 May, Monday

Time Temperature Precipitation Wind Pressure Humidity
00:00 +17°C° 0 mm 2 mps 686 mmHg 76%
01:00 +17°C° 0 mm 2 mps 686 mmHg 75%
02:00 +17°C° 0 mm 2 mps 686 mmHg 74%
03:00 +17°C° 0 mm 2 mps 685 mmHg 74%
04:00 +17°C° 0 mm 2 mps 685 mmHg 74%
05:00 +17°C° 0 mm 2 mps 684 mmHg 73%
06:00 +19°C° 0 mm 2 mps 685 mmHg 67%
07:00 +22°C° 0 mm 1 mps 685 mmHg 60%
08:00 +22°C° 0 mm 0 mps 685 mmHg 54%
09:00 +25°C° 0 mm 1 mps 685 mmHg 50%
10:00 +27°C° 0 mm 2 mps 685 mmHg 46%
11:00 +28°C° 0 mm 2 mps 685 mmHg 42%
12:00 +28°C° 0 mm 3 mps 685 mmHg 41%
13:00 +29°C° 0 mm 3 mps 684 mmHg 41%
14:00 +29°C° 0 mm 3 mps 684 mmHg 40%
15:00 +29°C° 0 mm 3 mps 684 mmHg 40%
16:00 +28°C° 0 mm 2 mps 684 mmHg 41%
17:00 +28°C° 0 mm 2 mps 684 mmHg 42%
18:00 +26°C° 0.1 mm 2 mps 684 mmHg 47%
19:00 +24°C° 0.1 mm 2 mps 684 mmHg 52%
20:00 +21°C° 0.1 mm 2 mps 684 mmHg 57%
21:00 +20°C° 0.4 mm 2 mps 684 mmHg 64%
22:00 +19°C° 0.4 mm 2 mps 684 mmHg 72%
23:00 +19°C° 0.4 mm 1 mps 685 mmHg 79%

Day after tomorrow, 11 May, Tuesday

Time Temperature Precipitation Wind Pressure Humidity
00:00 +18°C° 0.1 mm 2 mps 685 mmHg 80%
01:00 +18°C° 0.1 mm 2 mps 685 mmHg 80%
02:00 +18°C° 0.1 mm 2 mps 684 mmHg 80%
03:00 +18°C° 0 mm 2 mps 684 mmHg 79%
04:00 +18°C° 0 mm 1 mps 685 mmHg 79%
05:00 +18°C° 0 mm 1 mps 685 mmHg 78%
06:00 +19°C° 0.1 mm 1 mps 685 mmHg 75%
07:00 +20°C° 0.1 mm 1 mps 686 mmHg 73%
08:00 +21°C° 0.1 mm 1 mps 686 mmHg 71%
09:00 +21°C° 0.1 mm 1 mps 687 mmHg 67%
10:00 +21°C° 0.1 mm 1 mps 687 mmHg 64%
11:00 +21°C° 0.1 mm 1 mps 687 mmHg 60%
12:00 +22°C° 0.2 mm 1 mps 687 mmHg 57%
13:00 +23°C° 0.2 mm 1 mps 687 mmHg 55%
14:00 +23°C° 0.2 mm 1 mps 687 mmHg 53%
15:00 +23°C° 0.1 mm 1 mps 687 mmHg 52%
16:00 +23°C° 0.1 mm 1 mps 687 mmHg 51%
17:00 +23°C° 0.1 mm 1 mps 687 mmHg 51%
18:00 +21°C° 0 mm 2 mps 687 mmHg 57%
19:00 +19°C° 0 mm 2 mps 687 mmHg 63%
20:00 +17°C° 0 mm 3 mps 687 mmHg 69%
21:00 +17°C° 0 mm 3 mps 687 mmHg 67%
22:00 +16°C° 0 mm 3 mps 687 mmHg 65%
23:00 +16°C° 0 mm 2 mps 687 mmHg 63%

12 May, Wednesday

Time Temperature Precipitation Wind Pressure Humidity
00:00 +15°C° 0 mm 2 mps 686 mmHg 61%
01:00 +15°C° 0 mm 2 mps 686 mmHg 58%
02:00 +15°C° 0 mm 2 mps 686 mmHg 55%
03:00 +15°C° 0 mm 2 mps 686 mmHg 54%
04:00 +15°C° 0 mm 2 mps 686 mmHg 54%
05:00 +14°C° 0 mm 2 mps 686 mmHg 53%
06:00 +16°C° 0 mm 2 mps 686 mmHg 50%
07:00 +19°C° 0 mm 1 mps 687 mmHg 46%
08:00 +21°C° 0 mm 1 mps 687 mmHg 43%
09:00 +21°C° 0 mm 2 mps 687 mmHg 41%
10:00 +23°C° 0 mm 2 mps 687 mmHg 39%
11:00 +24°C° 0 mm 3 mps 687 mmHg 37%
12:00 +24°C° 0 mm 3 mps 687 mmHg 34%
13:00 +25°C° 0 mm 4 mps 686 mmHg 31%
14:00 +26°C° 0 mm 4 mps 686 mmHg 28%
15:00 +26°C° 0 mm 4 mps 686 mmHg 29%
16:00 +25°C° 0 mm 4 mps 686 mmHg 30%
17:00 +25°C° 0 mm 4 mps 685 mmHg 32%
18:00 +22°C° 0 mm 4 mps 685 mmHg 35%
19:00 +20°C° 0 mm 3 mps 686 mmHg 38%
20:00 +18°C° 0 mm 2 mps 686 mmHg 42%
21:00 +16°C° 0.2 mm 2 mps 686 mmHg 50%
22:00 +14°C° 0.2 mm 3 mps 686 mmHg 58%
23:00 +13°C° 0.2 mm 3 mps 686 mmHg 66%

13 May, Thursday

Time Temperature Precipitation Wind Pressure Humidity
00:00 +13°C° 0.2 mm 2 mps 686 mmHg 68%
01:00 +13°C° 0.2 mm 2 mps 686 mmHg 70%
02:00 +13°C° 0.2 mm 2 mps 686 mmHg 72%
03:00 +13°C° 0 mm 2 mps 686 mmHg 72%
04:00 +12°C° 0 mm 2 mps 686 mmHg 73%
05:00 +12°C° 0 mm 2 mps 687 mmHg 73%
06:00 +14°C° 0 mm 2 mps 687 mmHg 65%
07:00 +16°C° 0 mm 1 mps 687 mmHg 57%
08:00 +18°C° 0 mm 1 mps 687 mmHg 49%
09:00 +20°C° 0 mm 1 mps 687 mmHg 45%
10:00 +21°C° 0 mm 1 mps 687 mmHg 40%
11:00 +23°C° 0 mm 1 mps 687 mmHg 35%
12:00 +23°C° 0 mm 1 mps 687 mmHg 33%
13:00 +24°C° 0 mm 1 mps 686 mmHg 31%
14:00 +24°C° 0 mm 2 mps 686 mmHg 30%
15:00 +24°C° 0 mm 2 mps 686 mmHg 30%
16:00 +24°C° 0 mm 2 mps 685 mmHg 30%
17:00 +24°C° 0 mm 1 mps 685 mmHg 30%
18:00 +22°C° 0 mm 1 mps 685 mmHg 34%
19:00 +20°C° 0 mm 1 mps 685 mmHg 38%
20:00 +16°C° 0 mm 1 mps 685 mmHg 42%
21:00 +16°C° 0 mm 2 mps 685 mmHg 43%
22:00 +15°C° 0 mm 2 mps 685 mmHg 45%
23:00 +13°C° 0 mm 3 mps 685 mmHg 46%

14 May, Friday

Time Temperature Precipitation Wind Pressure Humidity
00:00 +14°C° 0 mm 2 mps 685 mmHg 46%
01:00 +14°C° 0 mm 2 mps 685 mmHg 45%
02:00 +14°C° 0 mm 2 mps 685 mmHg 45%
03:00 +13°C° 0 mm 2 mps 685 mmHg 46%
04:00 +13°C° 0 mm 2 mps 685 mmHg 47%
05:00 +13°C° 0 mm 2 mps 685 mmHg 48%
06:00 +15°C° 0 mm 1 mps 686 mmHg 46%
07:00 +18°C° 0 mm 1 mps 686 mmHg 44%
08:00 +18°C° 0 mm 0 mps 687 mmHg 42%
09:00 +21°C° 0 mm 1 mps 687 mmHg 40%
10:00 +22°C° 0 mm 1 mps 686 mmHg 38%
11:00 +24°C° 0 mm 1 mps 686 mmHg 36%
12:00 +24°C° 0 mm 2 mps 686 mmHg 34%
13:00 +25°C° 0 mm 2 mps 686 mmHg 32%
14:00 +25°C° 0 mm 2 mps 686 mmHg 30%
15:00 +25°C° 0 mm 2 mps 686 mmHg 31%
16:00 +25°C° 0 mm 1 mps 686 mmHg 32%
17:00 +25°C° 0 mm 1 mps 686 mmHg 33%
18:00 +23°C° 0 mm 1 mps 686 mmHg 36%
19:00 +20°C° 0 mm 2 mps 686 mmHg 40%
20:00 +18°C° 0 mm 2 mps 686 mmHg 43%
21:00 +17°C° 0 mm 2 mps 686 mmHg 44%
22:00 +17°C° 0 mm 2 mps 686 mmHg 45%
23:00 +16°C° 0 mm 2 mps 686 mmHg 46%
Show more

We Need Your Consent

Meteoprog and our Service Providers may store and access personal data such as cookies, device identifiers or other similar technologies on your device and process such data to personalise content and ads, as well as provide social media features and to analyse the traffic.

  • Store and/or access information on your device

    Cookies, device identifiers or other information can be stored or accessed on your device for the purposes indicated above.

  • Personalised ads and content, ad and content measurement, audience insights, and products development

    Ads and content can be personalised based on a profile. More data can be added to better personalise ads and content. Ad and content performance can be measured. Insights about the audience who saw the ads and content can be derived. Such data can be used to develop or improve user’s experience, systems and software.

By clicking ‘I Agree’ you will allow the use of indicated cookies, device identifiers, web beacons or other similar technologies. Your settings can be changed in the browser on your device.

For certain purposes, legitimate interests may be relied on, rather than consent. You can read more about this in our Privacy and Cookie Policy.